Regional Weather Roundup
Issued by NWS

Home | Current Version | Previous Version | Text Only | Print | Product List | Glossary On
Versions: 1 2 3 4 5 6 7 8 9 10 11 12 13 14 15 16 17 18 19 20 21 22 23 24 25 26 27 28 29 30 31 32 33 34 35 36 37 38 39 40 41 42 43 44 45 46 47 48 49 50
000
ASUS43 KDMX 022108
RWRIA

WEATHER ROUNDUP FOR IOWA
NATIONAL WEATHER SERVICE DES MOINES IA
400 PM CDT MON MAY 02 2016

NOTE: "FAIR" INDICATES FEW OR NO CLOUDS BELOW 12,000 FEET WITH NO
SIGNIFICANT WEATHER AND/OR OBSTRUCTIONS TO VISIBILITY.

* - THESE STATIONS ARE NOT NWS STATIONS...THUS NOT UNDER NWS
QUALITY CONTROL.  THEY ALSO DO NOT REPORT WEATHER SUCH
AS PRECIPITATION OR FOG.

IAZ001>003-012>014-020>022-031>034-043>046-022200-
   NORTHWEST IOWA

CITY           SKY/WX    TMP DP  RH WIND       PRES   REMARKS
CARROLL *      CLOUDY    61  41  48 VRB5      30.06F
CHEROKEE *     SUNNY     61  37  41 SW5       30.06S
DENISON *      PTSUNNY   63  39  42 VRB5      30.04F
LE MARS *      MOSUNNY   63  39  42 SW5G16    30.06F
ORANGE CITY *  CLOUDY    63  39  42 CALM      30.05F
SHELDON *      MOSUNNY   63  37  39 VRB3      30.04F
SIOUX CITY     MOSUNNY   65  36  34 VRB3      30.06F
SPENCER        PTSUNNY   60  35  39 CALM      30.06S
STORM LAKE *   SUNNY     61  37  41 NW6       30.07S
$$

IAZ055>058-069>071-079>083-090>094-022200-
   SOUTHWEST IOWA

CITY           SKY/WX    TMP DP  RH WIND       PRES   REMARKS
ATLANTIC *     CLOUDY    61  41  48 VRB6      30.07F
AUDUBON *        N/A     61  43  51 N3        30.08F
CLARINDA *       N/A    N/A N/A N/A MISG        N/A
COUNCIL BLFS * MOSUNNY   63  41  45 NE6       30.07F
CRESTON *      CLOUDY    59  39  47 N8G14     30.07F
HARLAN  *      CLOUDY    61  39  44 NW6G14    30.10F
LAMONI         CLOUDY    58  42  55 NE7       30.05F
SHENANDOAH *   CLOUDY    63  41  45 N3        30.08S
$$

IAZ047>049-059>061-072>074-084-022200-
   CENTRAL IOWA

CITY           SKY/WX    TMP DP  RH WIND       PRES   REMARKS
AMES           CLOUDY    60  42  51 NE5       30.05F
ANKENY *       CLOUDY    59  43  55 NE6       30.06S
BOONE *        MOSUNNY   61  39  44 NW7       30.05S
CHARITON *     CLOUDY    57  45  62 NE6G13    30.05F
DES MOINES     PTSUNNY   62  38  40 NE10      30.05F
GRINNELL*      CLOUDY    57  45  62 NE7       30.06F
KNOXVILLE *    CLOUDY    59  41  51 E8        30.04S
MARSHALLTOWN   CLOUDY    60  41  49 NE7       30.05F
NEWTON *       CLOUDY    59  45  58 E13       30.05S
$$

IAZ004>006-015-016-023>025-035-036-022200-
   NORTH CENTRAL IOWA

CITY           SKY/WX    TMP DP  RH WIND       PRES   REMARKS
ALGONA *       CLOUDY    63  36  36 W5        30.06F
CLARION *      CLOUDY    61  37  41 CALM      30.06F
ESTHERVILLE    SUNNY     61  40  45 VRB6      30.05F
FORT DODGE *   CLOUDY    61  37  41 CALM      30.07F
MASON CITY     CLOUDY    60  38  43 CALM      30.06F
FOREST CITY *  PTSUNNY   59  34  38 CALM      30.05F
WEBSTER CITY * CLOUDY    61  39  44 NW7       30.04F
IOWA FALLS *   CLOUDY    63  39  42 E6        30.06F
$$

IAZ007>011-017>019-026>030-037>042-050>054-066-022200-
   NORTHEAST IOWA

CITY           SKY/WX    TMP DP  RH WIND       PRES   REMARKS
CEDAR RAPIDS   CLOUDY    57  42  57 E5        30.05F
CHARLES CITY * CLOUDY    61  36  39 CALM      30.06F
CLINTON *      CLOUDY    59  42  53 NE9       30.04F
DECORAH *      PTSUNNY   61  36  39 CALM      30.04F
DUBUQUE        PTSUNNY   61  40  45 N6        30.04F
MONTICELLO *   CLOUDY    59  39  47 E6        30.05S
OELWEIN *      MOSUNNY   63  36  36 VRB6G12   30.05F
WATERLOO       MOSUNNY   62  38  40 CALM      30.04F
$$

IAZ064-065-067-068-078-022200-
   EAST CENTRAL IOWA

CITY           SKY/WX    TMP DP  RH WIND       PRES   REMARKS
DAVENPORT      CLOUDY    58  40  51 NE8       30.04F
IOWA CITY      CLOUDY    58  42  55 CALM      30.06F
MT. PLEASANT * CLOUDY    57  46  67 CALM      30.06F
MUSCATINE *    CLOUDY    59  41  51 NE8       30.05S
QUAD CITIES    CLOUDY    60  40  47 NE8       30.03F
$$

IAZ062-063-075>077-085>089-095>099-022200-
   SOUTHEAST IOWA

CITY           SKY/WX    TMP DP  RH WIND       PRES   REMARKS
BURLINGTON     CLOUDY    55  45  68 VRB6      30.05F
FAIRFIELD *    CLOUDY    57  43  58 NE7       30.05F
FORT MADISON * CLOUDY    55  45  67 CALM      30.06F
KEOKUK *       CLOUDY    55  45  67 NE8       30.05F
OSKALOOSA *    CLOUDY    57  43  58 E5        30.06F
OTTUMWA        LGT RAIN  52  48  86 W5        30.06F
WASHINGTON *   CLOUDY    57  48  72 E10       30.06F
$$

ABBREVIATIONS USED IN REMARKS
   TC - TEMPERATURES IN CELSIUS
  WCI - WIND CHILL INDEX
   HX - HEAT INDEX
  VSB - VISIBILITY
$$





USA.gov is the U.S. government's official web portal to all federal, state and local government web resources and services.